Regional Weather Roundup
Issued by NWS

Home | Current Version | Previous Version | Text Only | Print | Product List | Glossary Off
Versions: 1 2 3 4 5 6 7 8 9 10 11 12 13 14 15 16 17 18 19 20 21 22 23 24 25 26 27 28 29 30 31 32 33 34 35 36 37 38 39 40 41 42 43 44 45 46 47 48 49 50

000
ASUS45 KBOI 132110
RWRID

IDAHO REGIONAL WEATHER ROUNDUP
NATIONAL WEATHER SERVICE BOISE ID
200 PM MST SAT FEB 13 2016

NOTE: "FAIR" INDICATES FEW OR NO CLOUDS BELOW 12000 FEET
WITH NO SIGNIFICANT WEATHER AND/OR OBSTRUCTIONS TO VISIBILITY

IDZ012-014-132200-
SOUTHWEST IDAHO


CITY           SKY/WX    TMP DP  RH WIND       PRES   REMARKS
BOISE          MOSUNNY   50  31  48 NW12      30.31F
CALDWELL       SUNNY     52  29  41 NW9       30.33F
MOUNTAIN HOME  SUNNY     50  30  45 N17       30.30F
$$

IDZ016-017-132200-
SOUTHCENTRAL IDAHO


CITY           SKY/WX    TMP DP  RH WIND       PRES   REMARKS
BURLEY         LGT RAIN  46  33  60 W13G24    30.24F
JEROME         SUNNY     44  30  57 SW24      30.25F
TWIN FALLS     SUNNY     47  33  58 W18G25    30.26F
$$

IDZ019>023-132200-
SOUTHEAST IDAHO


CITY           SKY/WX    TMP DP  RH WIND       PRES   REMARKS
IDAHO FALLS    PTSUNNY   34  28  79 SW17      30.20R WCI  23
POCATELLO      MOSUNNY   44  31  60 W31G40    30.21F
REXBURG        SUNNY     34  26  72 S9        30.19R WCI  27
$$

IDZ006-010-011-018-031-032-132200-
CENTRAL IDAHO MOUNTAINS


CITY           SKY/WX    TMP DP  RH WIND       PRES   REMARKS
MCCALL         PTSUNNY   36  24  62 S8        30.24S WCI  30
HAILEY         MOSUNNY   37  28  70 E16       30.19  WCI  28
STANLEY          N/A     38  13  35 N8        30.20F WCI  32
SALMON         CLOUDY    39  27  60 SW6       30.17F WCI  35
CHALLIS        SUNNY     42  17  36 NE7       30.16S
$$

IDZ002-004-006-007-026-132200-
NORTHERN IDAHO


CITY           SKY/WX    TMP DP  RH WIND       PRES   REMARKS
LEWISTON       PTSUNNY   53  33  46 N6        30.25F
LOWELL           N/A     46  42  86 CALM      30.30S
COEUR D`ALENE  CLOUDY    45  34  65 SW16      30.18F
MULLAN PASS    LGT SNOW  27  26  96 CALM      30.12S FOG
$$



USA.gov is the U.S. government's official web portal to all federal, state and local government web resources and services.